Time,TemperatureF,DewpointF,PressureIn,WindDirection,WindDirectionDegrees,WindSpeedMPH,WindSpeedGustMPH,Humidity,HourlyPrecipIn,Conditions,Clouds,dailyrainin,SoftwareType,DateUTC
2013-03-06 00:00:00,39.8,14.1,30.00,WSW,248,5.4,13.4,35,0.00,,,0.00,WUHU216HW,2013-03-06 08:00:00,
2013-03-06 00:05:00,39.6,12.7,30.00,SW,225,8.9,11.4,33,0.00,,,0.00,WUHU216HW,2013-03-06 08:05:00,
2013-03-06 00:10:00,39.8,11.6,30.00,SE,135,8.7,12.8,31,0.00,,,0.00,WUHU216HW,2013-03-06 08:10:00,
2013-03-06 00:15:00,39.8,12.3,29.99,West,270,4.3,12.8,32,0.00,,,0.00,WUHU216HW,2013-03-06 08:15:00,
2013-03-06 00:20:00,39.8,12.3,29.99,WSW,248,7.6,7.8,32,0.00,,,0.00,WUHU216HW,2013-03-06 08:20:00,
2013-03-06 00:25:00,39.4,13.9,30.00,WNW,293,3.4,10.5,35,0.00,,,0.00,WUHU216HW,2013-03-06 08:25:00,
2013-03-06 00:30:00,39.1,15.5,29.99,WSW,248,5.6,10.5,38,0.00,,,0.00,WUHU216HW,2013-03-06 08:30:00,
2013-03-06 00:35:00,38.5,16.3,29.99,WSW,248,6.9,8.1,40,0.00,,,0.00,WUHU216HW,2013-03-06 08:35:00,
2013-03-06 00:40:00,38.0,15.8,29.98,WNW,293,5.8,8.9,40,0.00,,,0.00,WUHU216HW,2013-03-06 08:40:00,
2013-03-06 00:45:00,37.6,15.5,29.98,West,270,3.8,10.5,40,0.00,,,0.00,WUHU216HW,2013-03-06 08:45:00,
2013-03-06 00:50:00,37.6,14.9,29.99,WNW,293,3.4,10.5,39,0.00,,,0.00,WUHU216HW,2013-03-06 08:50:00,
2013-03-06 00:55:00,37.6,14.9,29.99,WSW,248,5.6,6.0,39,0.00,,,0.00,WUHU216HW,2013-03-06 08:55:00,
2013-03-06 01:00:00,37.6,14.9,29.99,WNW,293,3.4,6.3,39,0.00,,,0.00,WUHU216HW,2013-03-06 09:00:00,
2013-03-06 01:05:00,37.3,15.7,29.99,WNW,293,2.0,6.3,41,0.00,,,0.00,WUHU216HW,2013-03-06 09:05:00,
2013-03-06 01:10:00,36.7,16.7,29.99,NW,315,2.2,5.8,44,0.00,,,0.00,WUHU216HW,2013-03-06 09:10:00,
2013-03-06 01:15:00,36.2,17.8,30.00,WNW,293,4.3,8.1,47,0.00,,,0.00,WUHU216HW,2013-03-06 09:15:00,
2013-03-06 01:20:00,35.6,19.8,30.00,North,0,3.1,8.1,52,0.00,,,0.00,WUHU216HW,2013-03-06 09:20:00,
2013-03-06 01:25:00,34.9,19.4,30.00,West,270,4.3,7.8,53,0.00,,,0.00,WUHU216HW,2013-03-06 09:25:00,
2013-03-06 01:30:00,34.6,19.5,30.00,NNW,338,4.7,6.0,54,0.00,,,0.00,WUHU216HW,2013-03-06 09:30:00,
2013-03-06 01:35:00,34.0,19.9,30.00,North,0,1.8,7.6,56,0.00,,,0.00,WUHU216HW,2013-03-06 09:35:00,
2013-03-06 01:40:00,33.5,19.8,30.00,WNW,293,1.8,7.6,57,0.00,,,0.00,WUHU216HW,2013-03-06 09:40:00,
2013-03-06 01:45:00,33.3,20.1,30.00,SW,225,2.2,6.9,58,0.00,,,0.00,WUHU216HW,2013-03-06 09:45:00,
2013-03-06 01:50:00,33.1,20.3,29.99,SW,225,4.7,8.9,59,0.00,,,0.00,WUHU216HW,2013-03-06 09:50:00,
2013-03-06 01:55:00,32.9,19.7,29.99,West,270,1.8,8.9,58,0.00,,,0.00,WUHU216HW,2013-03-06 09:55:00,
2013-03-06 02:00:00,32.9,20.2,29.98,NNW,338,2.5,7.6,59,0.00,,,0.00,WUHU216HW,2013-03-06 10:00:00,
2013-03-06 02:05:00,32.8,20.0,29.98,North,0,0.7,7.6,59,0.00,,,0.00,WUHU216HW,2013-03-06 10:05:00,
2013-03-06 02:10:00,32.8,20.0,29.98,North,0,1.3,5.4,59,0.00,,,0.00,WUHU216HW,2013-03-06 10:10:00,
2013-03-06 02:15:00,32.4,19.7,29.98,NW,315,1.3,5.4,59,0.00,,,0.00,WUHU216HW,2013-03-06 10:15:00,
2013-03-06 02:20:00,32.0,19.8,29.99,NW,315,2.5,6.0,60,0.00,,,0.00,WUHU216HW,2013-03-06 10:20:00,
2013-03-06 02:25:00,32.0,19.8,29.99,NNW,338,1.3,6.0,60,0.00,,,0.00,WUHU216HW,2013-03-06 10:25:00,
2013-03-06 02:30:00,31.7,19.8,29.99,ENE,68,0.4,5.6,61,0.00,,,0.00,WUHU216HW,2013-03-06 10:30:00,
2013-03-06 02:35:00,31.5,20.0,29.99,North,0,1.6,5.6,62,0.00,,,0.00,WUHU216HW,2013-03-06 10:35:00,
2013-03-06 02:40:00,31.3,20.2,29.99,North,0,0.7,4.3,63,0.00,,,0.00,WUHU216HW,2013-03-06 10:40:00,
2013-03-06 02:45:00,31.1,20.7,29.99,North,0,1.8,5.4,65,0.00,,,0.00,WUHU216HW,2013-03-06 10:45:00,
2013-03-06 02:50:00,31.0,20.2,29.99,NNW,338,3.8,5.4,64,0.00,,,0.00,WUHU216HW,2013-03-06 10:50:00,
2013-03-06 02:55:00,31.3,17.4,29.98,WNW,293,5.4,9.2,56,0.00,,,0.00,WUHU216HW,2013-03-06 10:55:00,
2013-03-06 03:00:00,32.0,17.6,29.98,WNW,293,9.8,9.8,55,0.00,,,0.00,WUHU216HW,2013-03-06 11:00:00,
2013-03-06 03:05:00,32.8,17.5,29.98,South,180,1.3,9.8,53,0.00,,,0.00,WUHU216HW,2013-03-06 11:05:00,
2013-03-06 03:10:00,33.5,16.7,29.98,WSW,248,2.5,9.8,50,0.00,,,0.00,WUHU216HW,2013-03-06 11:10:00,
2013-03-06 03:15:00,33.8,17.6,29.98,SW,225,2.7,7.8,51,0.00,,,0.00,WUHU216HW,2013-03-06 11:15:00,
2013-03-06 03:20:00,34.2,16.9,29.98,SW,225,3.6,5.6,49,0.00,,,0.00,WUHU216HW,2013-03-06 11:20:00,
2013-03-06 03:25:00,34.7,17.0,29.98,WNW,293,9.8,9.8,48,0.00,,,0.00,WUHU216HW,2013-03-06 11:25:00,
2013-03-06 03:30:00,35.1,15.8,29.98,NNW,338,4.7,9.8,45,0.00,,,0.00,WUHU216HW,2013-03-06 11:30:00,
2013-03-06 03:35:00,35.6,15.2,29.98,ENE,68,4.7,9.2,43,0.00,,,0.00,WUHU216HW,2013-03-06 11:35:00,
2013-03-06 03:40:00,36.0,15.0,29.98,WNW,293,7.8,9.2,42,0.00,,,0.00,WUHU216HW,2013-03-06 11:40:00,
2013-03-06 03:45:00,36.2,16.3,29.98,WSW,248,4.0,7.8,44,0.00,,,0.00,WUHU216HW,2013-03-06 11:45:00,
2013-03-06 03:50:00,36.4,16.4,29.98,WNW,293,3.1,8.5,44,0.00,,,0.00,WUHU216HW,2013-03-06 11:50:00,
2013-03-06 03:55:00,36.4,15.9,29.98,North,0,2.7,8.5,43,0.00,,,0.00,WUHU216HW,2013-03-06 11:55:00,
2013-03-06 04:00:00,36.4,15.9,29.98,East,90,1.6,7.4,43,0.00,,,0.00,WUHU216HW,2013-03-06 12:00:00,
2013-03-06 04:05:00,36.2,16.3,29.98,North,0,1.6,7.4,44,0.00,,,0.00,WUHU216HW,2013-03-06 12:05:00,
2013-03-06 04:10:00,35.6,15.2,29.98,NNE,23,0.9,3.4,43,0.00,,,0.00,WUHU216HW,2013-03-06 12:10:00,
2013-03-06 04:15:00,35.1,15.3,29.98,NNW,338,3.4,3.4,44,0.00,,,0.00,WUHU216HW,2013-03-06 12:15:00,
2013-03-06 04:20:00,34.7,15.4,29.98,NNE,23,0.4,3.4,45,0.00,,,0.00,WUHU216HW,2013-03-06 12:20:00,
2013-03-06 04:25:00,34.4,15.1,29.98,NW,315,0.9,3.4,45,0.00,,,0.00,WUHU216HW,2013-03-06 12:25:00,
2013-03-06 04:30:00,34.2,15.4,29.98,WNW,293,0.7,1.8,46,0.00,,,0.00,WUHU216HW,2013-03-06 12:30:00,
2013-03-06 04:35:00,34.0,15.3,29.98,North,0,1.1,2.2,46,0.00,,,0.00,WUHU216HW,2013-03-06 12:35:00,
2013-03-06 04:40:00,33.8,14.6,29.99,North,0,1.1,4.9,45,0.00,,,0.00,WUHU216HW,2013-03-06 12:40:00,
2013-03-06 04:45:00,33.7,15.0,29.99,NNW,338,1.1,4.9,46,0.00,,,0.00,WUHU216HW,2013-03-06 12:45:00,
2013-03-06 04:50:00,33.5,14.8,29.99,North,0,0.9,2.0,46,0.00,,,0.00,WUHU216HW,2013-03-06 12:50:00,
2013-03-06 04:55:00,33.3,14.1,29.98,North,0,1.1,2.9,45,0.00,,,0.00,WUHU216HW,2013-03-06 12:55:00,
2013-03-06 05:00:00,33.1,14.0,29.98,NNW,338,0.4,2.9,45,0.00,,,0.00,WUHU216HW,2013-03-06 13:00:00,
2013-03-06 05:05:00,33.1,13.4,29.98,NNW,338,0.9,7.2,44,0.00,,,0.00,WUHU216HW,2013-03-06 13:05:00,
2013-03-06 05:10:00,32.9,13.2,29.98,East,90,0.4,7.2,44,0.00,,,0.00,WUHU216HW,2013-03-06 13:10:00,
2013-03-06 05:15:00,32.8,13.2,29.99,NNW,338,0.4,1.8,44,0.00,,,0.00,WUHU216HW,2013-03-06 13:15:00,
2013-03-06 05:20:00,32.6,12.4,29.99,North,0,3.4,4.7,43,0.00,,,0.00,WUHU216HW,2013-03-06 13:20:00,
2013-03-06 05:25:00,32.6,12.0,29.99,North,0,1.1,5.4,42,0.00,,,0.00,WUHU216HW,2013-03-06 13:25:00,
2013-03-06 05:30:00,32.6,12.0,29.99,NNE,23,0.4,5.4,42,0.00,,,0.00,WUHU216HW,2013-03-06 13:30:00,
2013-03-06 05:35:00,32.6,12.4,29.99,WSW,248,0.9,2.7,43,0.00,,,0.00,WUHU216HW,2013-03-06 13:35:00,
2013-03-06 05:40:00,32.2,12.2,29.99,ESE,113,0.2,1.3,43,0.00,,,0.00,WUHU216HW,2013-03-06 13:40:00,
2013-03-06 05:45:00,32.0,12.0,30.00,NNE,23,1.1,1.1,43,0.00,,,0.00,WUHU216HW,2013-03-06 13:45:00,
2013-03-06 05:50:00,31.7,11.6,30.00,NNW,338,0.0,1.8,43,0.00,,,0.00,WUHU216HW,2013-03-06 13:50:00,
2013-03-06 05:55:00,31.5,12.0,30.00,WSW,248,0.2,2.5,44,0.00,,,0.00,WUHU216HW,2013-03-06 13:55:00,
2013-03-06 06:00:00,31.3,11.8,30.00,NNE,23,0.0,2.5,44,0.00,,,0.00,WUHU216HW,2013-03-06 14:00:00,
2013-03-06 06:05:00,31.0,11.5,30.00,WSW,248,1.1,2.5,44,0.00,,,0.00,WUHU216HW,2013-03-06 14:05:00,
2013-03-06 06:10:00,30.8,11.8,30.00,North,0,0.2,2.5,45,0.00,,,0.00,WUHU216HW,2013-03-06 14:10:00,
2013-03-06 06:15:00,30.6,11.7,30.01,ENE,68,0.0,1.1,45,0.00,,,0.00,WUHU216HW,2013-03-06 14:15:00,
2013-03-06 06:20:00,30.4,11.5,30.01,West,270,1.1,3.4,45,0.00,,,0.00,WUHU216HW,2013-03-06 14:20:00,
2013-03-06 06:25:00,30.4,11.5,30.00,NW,315,2.2,5.4,45,0.00,,,0.00,WUHU216HW,2013-03-06 14:25:00,
2013-03-06 06:30:00,30.6,11.2,30.00,NNE,23,2.2,5.4,44,0.00,,,0.00,WUHU216HW,2013-03-06 14:30:00,
2013-03-06 06:35:00,31.0,11.0,30.01,NW,315,1.1,3.8,43,0.00,,,0.00,WUHU216HW,2013-03-06 14:35:00,
2013-03-06 06:40:00,31.1,11.2,30.01,NNE,23,1.3,3.1,43,0.00,,,0.00,WUHU216HW,2013-03-06 14:40:00,
2013-03-06 06:45:00,31.3,11.4,30.01,NNW,338,1.1,3.8,43,0.00,,,0.00,WUHU216HW,2013-03-06 14:45:00,
2013-03-06 06:50:00,31.7,11.2,30.01,WNW,293,0.4,3.8,42,0.00,,,0.00,WUHU216HW,2013-03-06 14:50:00,
2013-03-06 06:55:00,31.9,11.3,30.01,NNW,338,0.4,3.1,42,0.00,,,0.00,WUHU216HW,2013-03-06 14:55:00,
2013-03-06 07:00:00,32.0,11.4,30.01,WNW,293,3.8,8.3,42,0.00,,,0.00,WUHU216HW,2013-03-06 15:00:00,
2013-03-06 07:05:00,32.4,11.8,30.01,WSW,248,3.1,8.3,42,0.00,,,0.00,WUHU216HW,2013-03-06 15:05:00,
2013-03-06 07:10:00,32.8,11.6,30.01,WSW,248,0.4,5.1,41,0.00,,,0.00,WUHU216HW,2013-03-06 15:10:00,
2013-03-06 07:15:00,33.1,11.9,30.01,WNW,293,2.9,5.4,41,0.00,,,0.00,WUHU216HW,2013-03-06 15:15:00,
2013-03-06 07:20:00,33.8,12.1,30.01,SSW,203,2.7,6.3,40,0.00,,,0.00,WUHU216HW,2013-03-06 15:20:00,
2013-03-06 07:25:00,34.2,11.2,30.01,NW,315,3.6,6.3,38,0.00,,,0.00,WUHU216HW,2013-03-06 15:25:00,
2013-03-06 07:30:00,34.7,11.0,30.01,West,270,3.1,7.4,37,0.00,,,0.00,WUHU216HW,2013-03-06 15:30:00,
2013-03-06 07:35:00,35.5,10.3,30.01,SSW,203,5.8,7.8,35,0.00,,,0.00,WUHU216HW,2013-03-06 15:35:00,
2013-03-06 07:40:00,36.0,10.8,30.02,WSW,248,4.3,7.8,35,0.00,,,0.00,WUHU216HW,2013-03-06 15:40:00,
2013-03-06 07:45:00,36.4,11.1,30.02,WSW,248,2.9,5.8,35,0.00,,,0.00,WUHU216HW,2013-03-06 15:45:00,
2013-03-06 07:50:00,36.7,10.1,30.03,NW,315,0.9,4.5,33,0.00,,,0.00,WUHU216HW,2013-03-06 15:50:00,
2013-03-06 07:55:00,37.1,10.4,30.02,West,270,2.9,6.5,33,0.00,,,0.00,WUHU216HW,2013-03-06 15:55:00,
2013-03-06 08:00:00,37.4,10.8,30.03,WSW,248,4.9,6.5,33,0.00,,,0.00,WUHU216HW,2013-03-06 16:00:00,
2013-03-06 08:05:00,37.8,10.4,30.03,North,0,3.4,6.0,32,0.00,,,0.00,WUHU216HW,2013-03-06 16:05:00,
2013-03-06 08:10:00,38.2,10.8,30.03,WNW,293,2.5,10.7,32,0.00,,,0.00,WUHU216HW,2013-03-06 16:10:00,
2013-03-06 08:15:00,38.5,10.4,30.02,WSW,248,3.8,10.7,31,0.00,,,0.00,WUHU216HW,2013-03-06 16:15:00,
2013-03-06 08:20:00,38.9,11.4,30.02,West,270,6.0,7.4,32,0.00,,,0.00,WUHU216HW,2013-03-06 16:20:00,
2013-03-06 08:25:00,39.4,11.3,30.03,NNW,338,6.0,7.2,31,0.00,,,0.00,WUHU216HW,2013-03-06 16:25:00,
2013-03-06 08:30:00,39.8,11.6,30.03,West,270,1.1,6.9,31,0.00,,,0.00,WUHU216HW,2013-03-06 16:30:00,
2013-03-06 08:35:00,40.3,12.1,30.03,West,270,5.6,8.1,31,0.00,,,0.00,WUHU216HW,2013-03-06 16:35:00,
2013-03-06 08:40:00,40.7,12.4,30.03,WNW,293,2.5,8.5,31,0.00,,,0.00,WUHU216HW,2013-03-06 16:40:00,
2013-03-06 08:45:00,40.9,12.5,30.03,WSW,248,2.7,8.5,31,0.00,,,0.00,WUHU216HW,2013-03-06 16:45:00,
2013-03-06 08:50:00,41.2,12.9,30.03,WNW,293,3.4,6.9,31,0.00,,,0.00,WUHU216HW,2013-03-06 16:50:00,
2013-03-06 08:55:00,41.4,13.0,30.03,WNW,293,2.7,6.5,31,0.00,,,0.00,WUHU216HW,2013-03-06 16:55:00,
2013-03-06 09:00:00,41.8,12.6,30.03,WSW,248,2.9,6.5,30,0.00,,,0.00,WUHU216HW,2013-03-06 17:00:00,
2013-03-06 09:05:00,42.1,13.0,30.03,WNW,293,5.1,6.7,30,0.00,,,0.00,WUHU216HW,2013-03-06 17:05:00,
2013-03-06 09:10:00,42.5,13.9,30.03,NW,315,4.7,6.7,31,0.00,,,0.00,WUHU216HW,2013-03-06 17:10:00,
2013-03-06 09:15:00,42.8,12.6,30.03,SW,225,4.9,9.2,29,0.00,,,0.00,WUHU216HW,2013-03-06 17:15:00,
2013-03-06 09:20:00,42.8,13.5,30.02,WSW,248,6.0,9.2,30,0.00,,,0.00,WUHU216HW,2013-03-06 17:20:00,
2013-03-06 09:25:00,43.2,13.9,30.02,WSW,248,2.7,8.1,30,0.00,,,0.00,WUHU216HW,2013-03-06 17:25:00,
2013-03-06 09:30:00,43.4,14.7,30.03,NW,315,4.0,9.8,31,0.00,,,0.00,WUHU216HW,2013-03-06 17:30:00,
2013-03-06 09:35:00,43.6,14.1,30.02,NNE,23,3.8,11.9,30,0.00,,,0.00,WUHU216HW,2013-03-06 17:35:00,
2013-03-06 09:40:00,43.6,14.1,30.03,West,270,8.1,11.9,30,0.00,,,0.00,WUHU216HW,2013-03-06 17:40:00,
2013-03-06 09:45:00,43.7,14.3,30.03,NNW,338,5.4,8.9,30,0.00,,,0.00,WUHU216HW,2013-03-06 17:45:00,
2013-03-06 09:50:00,43.9,12.7,30.03,WNW,293,7.8,9.2,28,0.00,,,0.00,WUHU216HW,2013-03-06 17:50:00,
2013-03-06 09:55:00,44.1,14.7,30.03,WSW,248,5.6,9.2,30,0.00,,,0.00,WUHU216HW,2013-03-06 17:55:00,
2013-03-06 10:00:00,44.3,13.9,30.03,SSW,203,7.6,7.6,29,0.00,,,0.00,WUHU216HW,2013-03-06 18:00:00,
2013-03-06 10:05:00,44.3,14.8,30.03,NNW,338,2.2,7.6,30,0.00,,,0.00,WUHU216HW,2013-03-06 18:05:00,
2013-03-06 10:10:00,44.3,14.8,30.03,North,0,1.1,6.3,30,0.00,,,0.00,WUHU216HW,2013-03-06 18:10:00,
2013-03-06 10:15:00,44.5,15.7,30.03,WNW,293,6.3,6.3,31,0.00,,,0.00,WUHU216HW,2013-03-06 18:15:00,
2013-03-06 10:20:00,44.6,15.1,30.03,NE,45,4.9,9.2,30,0.00,,,0.00,WUHU216HW,2013-03-06 18:20:00,
2013-03-06 10:25:00,44.8,14.4,30.03,North,0,4.7,9.2,29,0.00,,,0.00,WUHU216HW,2013-03-06 18:25:00,
2013-03-06 10:30:00,44.6,15.1,30.03,NNW,338,4.9,8.5,30,0.00,,,0.00,WUHU216HW,2013-03-06 18:30:00,
2013-03-06 10:35:00,45.0,15.5,30.03,West,270,4.7,8.5,30,0.00,,,0.00,WUHU216HW,2013-03-06 18:35:00,
2013-03-06 10:40:00,45.2,16.3,30.03,WNW,293,6.9,7.6,31,0.00,,,0.00,WUHU216HW,2013-03-06 18:40:00,
2013-03-06 10:45:00,45.4,16.5,30.03,WSW,248,2.7,8.5,31,0.00,,,0.00,WUHU216HW,2013-03-06 18:45:00,
2013-03-06 10:50:00,45.4,16.5,30.03,SW,225,3.1,8.5,31,0.00,,,0.00,WUHU216HW,2013-03-06 18:50:00,
2013-03-06 10:55:00,45.5,17.3,30.02,SW,225,4.7,9.8,32,0.00,,,0.00,WUHU216HW,2013-03-06 18:55:00,
2013-03-06 11:00:00,45.9,16.9,30.02,NNW,338,2.9,10.5,31,0.00,,,0.00,WUHU216HW,2013-03-06 19:00:00,
2013-03-06 11:05:00,46.1,16.4,30.02,West,270,6.3,10.5,30,0.00,,,0.00,WUHU216HW,2013-03-06 19:05:00,
2013-03-06 11:10:00,46.3,17.3,30.02,East,90,3.1,9.2,31,0.00,,,0.00,WUHU216HW,2013-03-06 19:10:00,
2013-03-06 11:15:00,46.4,16.7,30.02,North,0,6.9,9.2,30,0.00,,,0.00,WUHU216HW,2013-03-06 19:15:00,
2013-03-06 11:20:00,46.3,17.3,30.02,WNW,293,5.6,8.1,31,0.00,,,0.00,WUHU216HW,2013-03-06 19:20:00,
2013-03-06 11:25:00,46.3,17.9,30.02,WNW,293,4.3,7.6,32,0.00,,,0.00,WUHU216HW,2013-03-06 19:25:00,
2013-03-06 11:30:00,46.1,18.5,30.02,West,270,4.5,7.6,33,0.00,,,0.00,WUHU216HW,2013-03-06 19:30:00,
2013-03-06 11:35:00,46.1,18.5,30.02,West,270,3.8,7.6,33,0.00,,,0.00,WUHU216HW,2013-03-06 19:35:00,
2013-03-06 11:40:00,46.3,19.3,30.02,West,270,5.8,7.6,34,0.00,,,0.00,WUHU216HW,2013-03-06 19:40:00,
2013-03-06 11:45:00,46.3,18.5,30.02,West,270,3.6,8.9,33,0.00,,,0.00,WUHU216HW,2013-03-06 19:45:00,
2013-03-06 11:50:00,46.4,18.7,30.02,North,0,5.1,8.9,33,0.00,,,0.00,WUHU216HW,2013-03-06 19:50:00,
2013-03-06 11:55:00,46.6,18.9,30.02,WNW,293,4.9,6.5,33,0.00,,,0.00,WUHU216HW,2013-03-06 19:55:00,
2013-03-06 12:00:00,46.8,19.1,30.01,WSW,248,4.0,6.5,33,0.00,,,0.00,WUHU216HW,2013-03-06 20:00:00,
2013-03-06 12:05:00,47.2,19.4,30.01,SSW,203,4.0,7.6,33,0.00,,,0.00,WUHU216HW,2013-03-06 20:05:00,
2013-03-06 12:10:00,47.5,20.3,30.01,North,0,2.5,7.6,34,0.00,,,0.00,WUHU216HW,2013-03-06 20:10:00,
2013-03-06 12:15:00,47.2,20.1,30.01,NNW,338,4.7,7.6,34,0.00,,,0.00,WUHU216HW,2013-03-06 20:15:00,
2013-03-06 12:20:00,47.3,19.5,30.01,WSW,248,7.8,8.5,33,0.00,,,0.00,WUHU216HW,2013-03-06 20:20:00,
2013-03-06 12:25:00,47.3,20.3,30.01,SW,225,1.3,8.9,34,0.00,,,0.00,WUHU216HW,2013-03-06 20:25:00,
2013-03-06 12:30:00,47.5,20.3,30.01,NW,315,3.6,8.9,34,0.00,,,0.00,WUHU216HW,2013-03-06 20:30:00,
2013-03-06 12:35:00,47.9,20.7,30.01,WNW,293,2.2,7.2,34,0.00,,,0.00,WUHU216HW,2013-03-06 20:35:00,
2013-03-06 12:40:00,48.2,22.3,30.00,SW,225,2.9,7.2,36,0.00,,,0.00,WUHU216HW,2013-03-06 20:40:00,
2013-03-06 12:45:00,48.2,21.1,30.00,WNW,293,6.3,7.8,34,0.00,,,0.00,WUHU216HW,2013-03-06 20:45:00,
2013-03-06 12:50:00,48.4,22.5,30.00,SW,225,4.9,7.8,36,0.00,,,0.00,WUHU216HW,2013-03-06 20:50:00,
2013-03-06 12:55:00,48.4,23.9,30.00,WNW,293,6.3,8.9,38,0.00,,,0.00,WUHU216HW,2013-03-06 20:55:00,
2013-03-06 13:00:00,48.6,24.0,30.00,WNW,293,4.5,8.9,38,0.00,,,0.00,WUHU216HW,2013-03-06 21:00:00,
2013-03-06 13:05:00,48.6,24.0,30.00,WNW,293,4.9,9.8,38,0.00,,,0.00,WUHU216HW,2013-03-06 21:05:00,
2013-03-06 13:10:00,48.8,24.9,30.00,WNW,293,4.7,9.8,39,0.00,,,0.00,WUHU216HW,2013-03-06 21:10:00,
2013-03-06 13:15:00,48.6,24.7,30.00,West,270,6.0,7.6,39,0.00,,,0.00,WUHU216HW,2013-03-06 21:15:00,
2013-03-06 13:20:00,48.8,24.9,30.00,WNW,293,6.3,7.8,39,0.00,,,0.00,WUHU216HW,2013-03-06 21:20:00,
2013-03-06 13:25:00,48.6,25.4,29.99,NW,315,4.9,7.8,40,0.00,,,0.00,WUHU216HW,2013-03-06 21:25:00,
2013-03-06 13:30:00,48.6,25.4,30.00,SSW,203,6.0,8.5,40,0.00,,,0.00,WUHU216HW,2013-03-06 21:30:00,
2013-03-06 13:35:00,48.6,25.4,30.00,WSW,248,6.7,8.5,40,0.00,,,0.00,WUHU216HW,2013-03-06 21:35:00,
2013-03-06 13:40:00,48.6,25.9,30.00,SW,225,5.4,9.4,41,0.00,,,0.00,WUHU216HW,2013-03-06 21:40:00,
2013-03-06 13:45:00,48.2,26.1,30.00,West,270,4.3,9.4,42,0.00,,,0.00,WUHU216HW,2013-03-06 21:45:00,
2013-03-06 13:50:00,47.7,26.2,30.00,SSW,203,2.7,7.6,43,0.00,,,0.00,WUHU216HW,2013-03-06 21:50:00,
2013-03-06 13:55:00,47.5,26.6,29.99,West,270,2.2,7.6,44,0.00,,,0.00,WUHU216HW,2013-03-06 21:55:00,
2013-03-06 14:00:00,47.2,26.2,30.00,South,180,1.3,7.6,44,0.00,,,0.00,WUHU216HW,2013-03-06 22:00:00,
2013-03-06 14:05:00,47.0,26.6,30.00,WNW,293,1.8,8.5,45,0.00,,,0.00,WUHU216HW,2013-03-06 22:05:00,
2013-03-06 14:10:00,46.6,26.8,30.00,WNW,293,5.4,8.5,46,0.00,,,0.00,WUHU216HW,2013-03-06 22:10:00,
2013-03-06 14:15:00,46.4,26.6,30.00,West,270,1.6,8.3,46,0.00,,,0.00,WUHU216HW,2013-03-06 22:15:00,
2013-03-06 14:20:00,46.1,26.8,30.00,WSW,248,3.6,8.3,47,0.00,,,0.00,WUHU216HW,2013-03-06 22:20:00,
2013-03-06 14:25:00,46.1,27.4,30.00,WNW,293,4.0,7.4,48,0.00,,,0.00,WUHU216HW,2013-03-06 22:25:00,
2013-03-06 14:30:00,45.7,27.1,30.00,WNW,293,3.1,8.9,48,0.00,,,0.00,WUHU216HW,2013-03-06 22:30:00,
2013-03-06 14:35:00,45.9,27.3,30.00,WNW,293,6.5,10.5,48,0.00,,,0.00,WUHU216HW,2013-03-06 22:35:00,
2013-03-06 14:40:00,45.7,27.6,30.00,WNW,293,2.2,10.5,49,0.00,,,0.00,WUHU216HW,2013-03-06 22:40:00,
2013-03-06 14:45:00,45.4,27.3,30.00,SSW,203,1.3,7.6,49,0.00,,,0.00,WUHU216HW,2013-03-06 22:45:00,
2013-03-06 14:50:00,45.4,27.3,30.00,WSW,248,6.7,8.5,49,0.00,,,0.00,WUHU216HW,2013-03-06 22:50:00,
2013-03-06 14:55:00,45.2,27.1,30.00,SW,225,6.5,8.5,49,0.00,,,0.00,WUHU216HW,2013-03-06 22:55:00,
2013-03-06 15:00:00,45.0,27.0,29.99,WNW,293,2.5,7.6,49,0.00,,,0.00,WUHU216HW,2013-03-06 23:00:00,
2013-03-06 15:05:00,45.0,27.0,29.99,WSW,248,0.4,6.5,49,0.00,,,0.00,WUHU216HW,2013-03-06 23:05:00,
2013-03-06 15:10:00,45.0,27.0,29.99,WSW,248,6.0,8.9,49,0.00,,,0.00,WUHU216HW,2013-03-06 23:10:00,
2013-03-06 15:15:00,44.8,25.2,29.99,WNW,293,3.4,8.9,46,0.00,,,0.00,WUHU216HW,2013-03-06 23:15:00,
2013-03-06 15:20:00,44.8,24.7,29.99,WSW,248,1.1,6.0,45,0.00,,,0.00,WUHU216HW,2013-03-06 23:20:00,
2013-03-06 15:25:00,44.5,23.8,29.99,North,0,3.1,4.9,44,0.00,,,0.00,WUHU216HW,2013-03-06 23:25:00,
2013-03-06 15:30:00,44.5,23.8,29.99,WNW,293,8.1,8.1,44,0.00,,,0.00,WUHU216HW,2013-03-06 23:30:00,
2013-03-06 15:35:00,44.3,23.0,29.99,SSW,203,3.4,8.1,43,0.00,,,0.00,WUHU216HW,2013-03-06 23:35:00,
2013-03-06 15:40:00,44.3,23.0,29.99,SW,225,6.5,8.3,43,0.00,,,0.00,WUHU216HW,2013-03-06 23:40:00,
2013-03-06 15:45:00,43.9,23.3,29.99,NW,315,6.0,9.6,44,0.00,,,0.00,WUHU216HW,2013-03-06 23:45:00,
2013-03-06 15:50:00,43.7,23.7,29.98,West,270,3.1,9.6,45,0.00,,,0.00,WUHU216HW,2013-03-06 23:50:00,
2013-03-06 15:55:00,43.6,24.0,29.98,North,0,2.5,6.3,46,0.00,,,0.00,WUHU216HW,2013-03-06 23:55:00,
2013-03-06 16:00:00,43.4,24.4,29.98,WNW,293,2.9,5.6,47,0.00,,,0.00,WUHU216HW,2013-03-07 00:00:00,
2013-03-06 16:05:00,43.0,24.1,29.98,South,180,3.4,6.3,47,0.00,,,0.00,WUHU216HW,2013-03-07 00:05:00,
2013-03-06 16:10:00,42.8,24.5,29.98,NW,315,2.0,6.3,48,0.00,,,0.00,WUHU216HW,2013-03-07 00:10:00,
2013-03-06 16:15:00,42.7,24.8,29.98,NNW,338,3.8,8.9,49,0.00,,,0.00,WUHU216HW,2013-03-07 00:15:00,
2013-03-06 16:20:00,42.1,24.3,29.98,North,0,1.6,8.9,49,0.00,,,0.00,WUHU216HW,2013-03-07 00:20:00,
2013-03-06 16:25:00,41.8,23.9,29.98,West,270,2.0,5.4,49,0.00,,,0.00,WUHU216HW,2013-03-07 00:25:00,
2013-03-06 16:30:00,41.8,23.9,29.97,WSW,248,6.9,6.9,49,0.00,,,0.00,WUHU216HW,2013-03-07 00:30:00,
2013-03-06 16:35:00,41.6,23.8,29.97,WNW,293,0.7,6.9,49,0.00,,,0.00,WUHU216HW,2013-03-07 00:35:00,
2013-03-06 16:40:00,41.4,24.1,29.97,SSW,203,2.5,5.8,50,0.00,,,0.00,WUHU216HW,2013-03-07 00:40:00,
2013-03-06 16:45:00,41.2,24.4,29.97,WNW,293,3.8,7.2,51,0.00,,,0.00,WUHU216HW,2013-03-07 00:45:00,
2013-03-06 16:50:00,40.9,24.0,29.97,WNW,293,4.0,7.6,51,0.00,,,0.00,WUHU216HW,2013-03-07 00:50:00,
2013-03-06 16:55:00,40.7,24.3,29.97,SW,225,4.0,7.6,52,0.00,,,0.00,WUHU216HW,2013-03-07 00:55:00,
2013-03-06 17:00:00,40.3,24.0,29.97,West,270,2.7,8.1,52,0.00,,,0.00,WUHU216HW,2013-03-07 01:00:00,
2013-03-06 17:05:00,40.0,24.1,29.97,SW,225,4.9,8.1,53,0.00,,,0.00,WUHU216HW,2013-03-07 01:05:00,
2013-03-06 17:10:00,39.6,24.2,29.97,WNW,293,0.7,5.8,54,0.00,,,0.00,WUHU216HW,2013-03-07 01:10:00,
2013-03-06 17:15:00,39.4,24.0,29.97,West,270,1.1,5.1,54,0.00,,,0.00,WUHU216HW,2013-03-07 01:15:00,
2013-03-06 17:20:00,39.2,24.3,29.97,West,270,2.5,6.9,55,0.00,,,0.00,WUHU216HW,2013-03-07 01:20:00,
2013-03-06 17:25:00,38.9,24.4,29.97,WNW,293,3.4,6.9,56,0.00,,,0.00,WUHU216HW,2013-03-07 01:25:00,
2013-03-06 17:30:00,38.5,24.1,29.97,South,180,1.8,9.2,56,0.00,,,0.00,WUHU216HW,2013-03-07 01:30:00,
2013-03-06 17:35:00,38.2,24.7,29.97,South,180,1.6,9.2,58,0.00,,,0.00,WUHU216HW,2013-03-07 01:35:00,
2013-03-06 17:40:00,37.8,24.8,29.97,SW,225,6.9,8.1,59,0.00,,,0.00,WUHU216HW,2013-03-07 01:40:00,
2013-03-06 17:45:00,37.3,24.7,29.97,WNW,293,3.6,8.1,60,0.00,,,0.00,WUHU216HW,2013-03-07 01:45:00,
2013-03-06 17:50:00,36.9,24.4,29.97,WSW,248,1.8,6.9,60,0.00,,,0.00,WUHU216HW,2013-03-07 01:50:00,
2013-03-06 17:55:00,36.5,24.0,29.97,WNW,293,2.5,6.3,60,0.00,,,0.00,WUHU216HW,2013-03-07 01:55:00,
2013-03-06 18:00:00,36.2,24.0,29.97,WNW,293,0.7,6.3,61,0.00,,,0.00,WUHU216HW,2013-03-07 02:00:00,
2013-03-06 18:05:00,35.6,24.7,29.97,West,270,2.5,4.5,64,0.00,,,0.00,WUHU216HW,2013-03-07 02:05:00,
2013-03-06 18:10:00,35.6,24.7,29.97,North,0,4.7,5.8,64,0.00,,,0.00,WUHU216HW,2013-03-07 02:10:00,
2013-03-06 18:15:00,35.3,24.7,29.97,West,270,2.7,5.8,65,0.00,,,0.00,WUHU216HW,2013-03-07 02:15:00,
2013-03-06 18:20:00,35.1,24.8,29.97,South,180,0.4,4.7,66,0.00,,,0.00,WUHU216HW,2013-03-07 02:20:00,
2013-03-06 18:25:00,35.1,25.2,29.97,WNW,293,0.4,4.5,67,0.00,,,0.00,WUHU216HW,2013-03-07 02:25:00,
2013-03-06 18:30:00,34.9,25.4,29.97,ESE,113,0.9,4.5,68,0.00,,,0.00,WUHU216HW,2013-03-07 02:30:00,
2013-03-06 18:35:00,34.7,25.2,29.98,WNW,293,1.8,4.0,68,0.00,,,0.00,WUHU216HW,2013-03-07 02:35:00,
2013-03-06 18:40:00,34.6,25.4,29.97,ESE,113,1.3,4.0,69,0.00,,,0.00,WUHU216HW,2013-03-07 02:40:00,
2013-03-06 18:45:00,34.2,25.4,29.98,North,0,4.0,6.7,70,0.00,,,0.00,WUHU216HW,2013-03-07 02:45:00,
2013-03-06 18:50:00,34.0,24.8,29.97,West,270,4.5,6.7,69,0.00,,,0.00,WUHU216HW,2013-03-07 02:50:00,
2013-03-06 18:55:00,33.8,24.7,29.98,North,0,0.2,5.6,69,0.00,,,0.00,WUHU216HW,2013-03-07 02:55:00,
2013-03-06 19:00:00,33.7,24.5,29.98,SW,225,3.4,4.0,69,0.00,,,0.00,WUHU216HW,2013-03-07 03:00:00,
2013-03-06 19:05:00,33.5,24.7,29.98,SW,225,3.4,5.6,70,0.00,,,0.00,WUHU216HW,2013-03-07 03:05:00,
2013-03-06 19:10:00,33.5,24.3,29.98,North,0,2.5,5.6,69,0.00,,,0.00,WUHU216HW,2013-03-07 03:10:00,
2013-03-06 19:15:00,33.1,24.4,29.97,NNE,23,2.5,4.3,70,0.00,,,0.00,WUHU216HW,2013-03-07 03:15:00,
2013-03-06 19:20:00,32.9,24.2,29.98,NNE,23,0.9,4.3,70,0.00,,,0.00,WUHU216HW,2013-03-07 03:20:00,
2013-03-06 19:25:00,32.8,24.0,29.97,North,0,2.2,3.4,70,0.00,,,0.00,WUHU216HW,2013-03-07 03:25:00,
2013-03-06 19:30:00,32.8,24.0,29.97,NE,45,0.9,3.4,70,0.00,,,0.00,WUHU216HW,2013-03-07 03:30:00,
2013-03-06 19:35:00,32.8,24.0,29.97,North,0,1.3,2.2,70,0.00,,,0.00,WUHU216HW,2013-03-07 03:35:00,
2013-03-06 19:40:00,32.6,24.2,29.98,NNW,338,2.7,5.4,71,0.00,,,0.00,WUHU216HW,2013-03-07 03:40:00,
2013-03-06 19:45:00,32.4,23.8,29.97,NNE,23,0.7,5.4,70,0.00,,,0.00,WUHU216HW,2013-03-07 03:45:00,
2013-03-06 19:50:00,32.4,24.0,29.97,WNW,293,0.9,6.0,71,0.00,,,0.00,WUHU216HW,2013-03-07 03:50:00,
2013-03-06 19:55:00,32.2,23.9,29.97,WNW,293,1.1,6.0,71,0.00,,,0.00,WUHU216HW,2013-03-07 03:55:00,
2013-03-06 20:00:00,32.0,23.8,29.97,WNW,293,1.8,2.7,71,0.00,,,0.00,WUHU216HW,2013-03-07 04:00:00,
2013-03-06 20:05:00,32.0,23.8,29.97,NNW,338,1.3,4.5,71,0.00,,,0.00,WUHU216HW,2013-03-07 04:05:00,
2013-03-06 20:10:00,31.9,23.9,29.96,North,0,3.1,4.7,72,0.00,,,0.00,WUHU216HW,2013-03-07 04:10:00,
2013-03-06 20:15:00,31.9,23.9,29.96,WNW,293,3.4,4.7,72,0.00,,,0.00,WUHU216HW,2013-03-07 04:15:00,
2013-03-06 20:20:00,31.5,23.5,29.96,NNW,338,0.4,4.5,72,0.00,,,0.00,WUHU216HW,2013-03-07 04:20:00,
2013-03-06 20:25:00,31.5,23.9,29.96,NW,315,1.3,4.5,73,0.00,,,0.00,WUHU216HW,2013-03-07 04:25:00,
2013-03-06 20:30:00,31.3,23.7,29.96,NW,315,0.9,5.4,73,0.00,,,0.00,WUHU216HW,2013-03-07 04:30:00,
2013-03-06 20:35:00,31.3,23.7,29.96,NNE,23,2.9,5.4,73,0.00,,,0.00,WUHU216HW,2013-03-07 04:35:00,
2013-03-06 20:40:00,31.1,23.5,29.96,NW,315,5.4,6.0,73,0.00,,,0.00,WUHU216HW,2013-03-07 04:40:00,
2013-03-06 20:45:00,31.1,23.5,29.96,ENE,68,0.4,6.0,73,0.00,,,0.00,WUHU216HW,2013-03-07 04:45:00,
2013-03-06 20:50:00,31.1,23.5,29.96,West,270,1.8,6.0,73,0.00,,,0.00,WUHU216HW,2013-03-07 04:50:00,
2013-03-06 20:55:00,31.0,23.0,29.96,West,270,1.6,7.4,72,0.00,,,0.00,WUHU216HW,2013-03-07 04:55:00,
2013-03-06 21:00:00,31.0,23.0,29.96,SE,135,1.1,7.4,72,0.00,,,0.00,WUHU216HW,2013-03-07 05:00:00,
2013-03-06 21:05:00,31.0,23.0,29.96,East,90,1.1,4.0,72,0.00,,,0.00,WUHU216HW,2013-03-07 05:05:00,
2013-03-06 21:10:00,31.0,23.0,29.95,NW,315,2.5,4.7,72,0.00,,,0.00,WUHU216HW,2013-03-07 05:10:00,
2013-03-06 21:15:00,30.8,22.5,29.95,WSW,248,1.1,4.7,71,0.00,,,0.00,WUHU216HW,2013-03-07 05:15:00,
2013-03-06 21:20:00,30.8,22.5,29.95,NNW,338,1.3,8.5,71,0.00,,,0.00,WUHU216HW,2013-03-07 05:20:00,
2013-03-06 21:25:00,30.6,22.0,29.95,NE,45,0.9,8.5,70,0.00,,,0.00,WUHU216HW,2013-03-07 05:25:00,
2013-03-06 21:30:00,30.8,22.5,29.95,WNW,293,1.8,7.4,71,0.00,,,0.00,WUHU216HW,2013-03-07 05:30:00,
2013-03-06 21:35:00,30.8,22.8,29.95,WNW,293,6.0,10.1,72,0.00,,,0.00,WUHU216HW,2013-03-07 05:35:00,
2013-03-06 21:40:00,30.8,22.8,29.95,WSW,248,2.2,10.1,72,0.00,,,0.00,WUHU216HW,2013-03-07 05:40:00,
2013-03-06 21:45:00,30.8,23.1,29.95,WSW,248,3.1,10.5,73,0.00,,,0.00,WUHU216HW,2013-03-07 05:45:00,
2013-03-06 21:50:00,30.8,22.8,29.95,SSE,158,3.4,14.3,72,0.00,,,0.00,WUHU216HW,2013-03-07 05:50:00,
2013-03-06 21:55:00,30.8,22.5,29.95,North,0,0.9,14.3,71,0.00,,,0.00,WUHU216HW,2013-03-07 05:55:00,
2013-03-06 22:00:00,30.6,22.0,29.95,SSE,158,0.2,4.0,70,0.00,,,0.00,WUHU216HW,2013-03-07 06:00:00,
2013-03-06 22:05:00,30.6,22.0,29.95,North,0,0.0,3.6,70,0.00,,,0.00,WUHU216HW,2013-03-07 06:05:00,
2013-03-06 22:10:00,30.6,22.3,29.95,East,90,0.4,1.8,71,0.00,,,0.00,WUHU216HW,2013-03-07 06:10:00,
2013-03-06 22:15:00,30.2,22.2,29.95,NE,45,0.7,1.8,72,0.00,,,0.00,WUHU216HW,2013-03-07 06:15:00,
2013-03-06 22:20:00,30.1,22.4,29.95,NE,45,0.4,1.8,73,0.00,,,0.00,WUHU216HW,2013-03-07 06:20:00,
2013-03-06 22:25:00,29.9,22.2,29.95,North,0,0.9,2.0,73,0.00,,,0.00,WUHU216HW,2013-03-07 06:25:00,
2013-03-06 22:30:00,29.7,22.4,29.95,SE,135,0.4,2.5,74,0.00,,,0.00,WUHU216HW,2013-03-07 06:30:00,
2013-03-06 22:35:00,29.5,22.2,29.95,NNE,23,0.9,2.5,74,0.00,,,0.00,WUHU216HW,2013-03-07 06:35:00,
2013-03-06 22:40:00,29.3,22.1,29.95,WSW,248,1.1,2.5,74,0.00,,,0.00,WUHU216HW,2013-03-07 06:40:00,
2013-03-06 22:45:00,29.2,21.9,29.95,SSE,158,2.5,5.4,74,0.00,,,0.00,WUHU216HW,2013-03-07 06:45:00,
2013-03-06 22:50:00,29.2,21.6,29.95,SW,225,1.8,5.4,73,0.00,,,0.00,WUHU216HW,2013-03-07 06:50:00,
2013-03-06 22:55:00,29.2,21.6,29.95,WSW,248,2.9,6.9,73,0.00,,,0.00,WUHU216HW,2013-03-07 06:55:00,
2013-03-06 23:00:00,29.3,21.8,29.95,SW,225,4.0,6.9,73,0.00,,,0.00,WUHU216HW,2013-03-07 07:00:00,
2013-03-06 23:05:00,29.5,22.2,29.95,WNW,293,0.9,8.9,74,0.00,,,0.00,WUHU216HW,2013-03-07 07:05:00,
2013-03-06 23:10:00,29.5,22.5,29.95,NNW,338,4.0,8.9,75,0.00,,,0.00,WUHU216HW,2013-03-07 07:10:00,
2013-03-06 23:15:00,29.5,22.5,29.95,SSE,158,1.8,5.6,75,0.00,,,0.00,WUHU216HW,2013-03-07 07:15:00,
2013-03-06 23:20:00,29.5,22.9,29.95,SSW,203,2.5,5.4,76,0.00,,,0.00,WUHU216HW,2013-03-07 07:20:00,
2013-03-06 23:25:00,29.5,22.9,29.95,NNW,338,4.0,4.0,76,0.00,,,0.00,WUHU216HW,2013-03-07 07:25:00,
2013-03-06 23:30:00,29.5,22.5,29.95,North,0,2.5,4.0,75,0.00,,,0.00,WUHU216HW,2013-03-07 07:30:00,
2013-03-06 23:35:00,29.3,22.7,29.95,ESE,113,0.7,4.0,76,0.00,,,0.00,WUHU216HW,2013-03-07 07:35:00,
2013-03-06 23:40:00,29.3,22.4,29.94,WSW,248,0.9,4.0,75,0.00,,,0.00,WUHU216HW,2013-03-07 07:40:00,
2013-03-06 23:45:00,29.2,22.2,29.95,NNE,23,3.4,4.0,75,0.00,,,0.00,WUHU216HW,2013-03-07 07:45:00,
2013-03-06 23:50:00,29.3,23.3,29.94,South,180,3.4,5.4,78,0.00,,,0.00,WUHU216HW,2013-03-07 07:50:00,
2013-03-06 23:55:00,29.3,23.0,29.94,NNW,338,1.6,5.4,77,0.00,,,0.00,WUHU216HW,2013-03-07 07:55:00,